owner,sensor,date,latitude,longitude,vertical_datum,sea_water_practical_salinity,qcFlag 
SCCF RECON,ioos:station:SCCF:53:1,2011-10-01T00:00:00Z,26.6493,-81.8810,2.358,4.64,1111122 
SCCF RECON,ioos:station:SCCF:53:1,2011-10-01T01:00:00Z,26.6493,-81.8810,2.31,4.3,1111122 
SCCF RECON,ioos:station:SCCF:53:1,2011-10-01T02:00:00Z,26.6493,-81.8810,2.27,3.9,1111122 
SCCF RECON,ioos:station:SCCF:53:1,2011-10-01T03:00:00Z,26.6493,-81.8810,2.24,3.83,1111122 
SCCF RECON,ioos:station:SCCF:53:1,2011-10-01T04:00:00Z,26.6493,-81.8810,2.21,3.78,1111122 
SCCF RECON,ioos:station:SCCF:53:1,2011-10-01T05:00:00Z,26.6493,-81.8810,2.206,4.1,1111122 
SCCF RECON,ioos:station:SCCF:53:1,2011-10-01T06:00:00Z,26.6493,-81.8810,2.27,5.12,1111122 
SCCF RECON,ioos:station:SCCF:53:1,2011-10-01T07:00:00Z,26.6493,-81.8810,2.35,4.88,1111122 
SCCF RECON,ioos:station:SCCF:53:1,2011-10-01T08:00:00Z,26.6493,-81.8810,2.41,4.97,1111122 
SCCF RECON,ioos:station:SCCF:53:1,2011-10-01T09:00:00Z,26.6493,-81.8810,2.477,5.4,1111122 
SCCF RECON,ioos:station:SCCF:53:1,2011-10-01T10:00:00Z,26.6493,-81.8810,2.52,5.83,1111122 
SCCF RECON,ioos:station:SCCF:53:1,2011-10-01T11:00:00Z,26.6493,-81.8810,2.51,5.16,1111122 
SCCF RECON,ioos:station:SCCF:53:1,2011-10-01T12:00:00Z,26.6493,-81.8810,2.45,5.14,1111122 
SCCF RECON,ioos:station:SCCF:53:1,2011-10-01T13:00:00Z,26.6493,-81.8810,2.39,4.65,1111122 
SCCF RECON,ioos:station:SCCF:53:1,2011-10-01T14:00:00Z,26.6493,-81.8810,2.33,4.1,1111122 
SCCF RECON,ioos:station:SCCF:53:1,2011-10-01T15:00:00Z,26.6493,-81.8810,2.272,4.25,1111122 
SCCF RECON,ioos:station:SCCF:53:1,2011-10-01T16:00:00Z,26.6493,-81.8810,2.21,3.45,1111122 
SCCF RECON,ioos:station:SCCF:53:1,2011-10-01T17:00:00Z,26.6493,-81.8810,2.15,3.42,1111122 
SCCF RECON,ioos:station:SCCF:53:1,2011-10-01T18:00:00Z,26.6493,-81.8810,2.095,3.39,1111122 
SCCF RECON,ioos:station:SCCF:53:1,2011-10-01T19:00:00Z,26.6493,-81.8810,2.085,4.6,1111122 
SCCF RECON,ioos:station:SCCF:53:1,2011-10-01T20:00:00Z,26.6493,-81.8810,2.128,5.05,1111122 
SCCF RECON,ioos:station:SCCF:53:1,2011-10-01T21:00:00Z,26.6493,-81.8810,2.179,5.86,1111122 
SCCF RECON,ioos:station:SCCF:53:1,2011-10-01T22:00:00Z,26.6493,-81.8810,2.225,6.0,1111122 
SCCF RECON,ioos:station:SCCF:53:1,2011-10-01T23:00:00Z,26.6493,-81.8810,2.28,6.15,1111122 
SCCF RECON,ioos:station:SCCF:53:1,2011-10-02T00:00:00Z,26.6493,-81.8810,2.321,5.87,1111122 
SCCF RECON,ioos:station:SCCF:53:1,2011-10-02T01:00:00Z,26.6493,-81.8810,2.348,5.09,1111122 
SCCF RECON,ioos:station:SCCF:53:1,2011-10-02T02:00:00Z,26.6493,-81.8810,2.35,4.2,1111122 
SCCF RECON,ioos:station:SCCF:53:1,2011-10-02T03:00:00Z,26.6493,-81.8810,2.311,4.11,1111122 
SCCF RECON,ioos:station:SCCF:53:1,2011-10-02T04:00:00Z,26.6493,-81.8810,2.269,3.72,1111122 
SCCF RECON,ioos:station:SCCF:53:1,2011-10-02T05:00:00Z,26.6493,-81.8810,2.224,3.38,1111122 
SCCF RECON,ioos:station:SCCF:53:1,2011-10-02T06:00:00Z,26.6493,-81.8810,2.21,3.72,1111122 
SCCF RECON,ioos:station:SCCF:53:1,2011-10-02T07:00:00Z,26.6493,-81.8810,2.25,4.49,1111122 
SCCF RECON,ioos:station:SCCF:53:1,2011-10-02T08:00:00Z,26.6493,-81.8810,2.3,4.24,1111122 
SCCF RECON,ioos:station:SCCF:53:1,2011-10-02T09:00:00Z,26.6493,-81.8810,2.35,4.81,1111122 
SCCF RECON,ioos:station:SCCF:53:1,2011-10-02T10:00:00Z,26.6493,-81.8810,2.405,7.08,1111122 
SCCF RECON,ioos:station:SCCF:53:1,2011-10-02T11:00:00Z,26.6493,-81.8810,2.43,6.02,1111122 
SCCF RECON,ioos:station:SCCF:53:1,2011-10-02T12:00:00Z,26.6493,-81.8810,2.409,7.08,1111122 
SCCF RECON,ioos:station:SCCF:53:1,2011-10-02T13:00:00Z,26.6493,-81.8810,2.35,4.36,1111122 
SCCF RECON,ioos:station:SCCF:53:1,2011-10-02T14:00:00Z,26.6493,-81.8810,2.3,3.77,1111122 
SCCF RECON,ioos:station:SCCF:53:1,2011-10-02T15:00:00Z,26.6493,-81.8810,2.249,3.65,1111122 
SCCF RECON,ioos:station:SCCF:53:1,2011-10-02T16:00:00Z,26.6493,-81.8810,2.194,3.5,1111122 
SCCF RECON,ioos:station:SCCF:53:1,2011-10-02T17:00:00Z,26.6493,-81.8810,2.137,3.07,1111122 
SCCF RECON,ioos:station:SCCF:53:1,2011-10-02T18:00:00Z,26.6493,-81.8810,2.084,4.05,1111122 
SCCF RECON,ioos:station:SCCF:53:1,2011-10-02T19:00:00Z,26.6493,-81.8810,2.042,4.29,1111122 
SCCF RECON,ioos:station:SCCF:53:1,2011-10-02T20:00:00Z,26.6493,-81.8810,2.044,4.57,1111122 
SCCF RECON,ioos:station:SCCF:53:1,2011-10-02T21:00:00Z,26.6493,-81.8810,2.08,4.75,1111122 
SCCF RECON,ioos:station:SCCF:53:1,2011-10-02T22:00:00Z,26.6493,-81.8810,2.12,4.74,1111122 
SCCF RECON,ioos:station:SCCF:53:1,2011-10-02T23:00:00Z,26.6493,-81.8810,2.17,5.11,1111122 
SCCF RECON,ioos:station:SCCF:53:1,2011-10-03T00:00:00Z,26.6493,-81.8810,2.22,4.7,1111122 
SCCF RECON,ioos:station:SCCF:53:1,2011-10-03T01:00:00Z,26.6493,-81.8810,2.27,4.45,1111122 
SCCF RECON,ioos:station:SCCF:53:1,2011-10-03T02:00:00Z,26.6493,-81.8810,2.298,4.45,1111122 
SCCF RECON,ioos:station:SCCF:53:1,2011-10-03T03:00:00Z,26.6493,-81.8810,2.31,4.12,1111122 
SCCF RECON,ioos:station:SCCF:53:1,2011-10-03T04:00:00Z,26.6493,-81.8810,2.288,4.42,1111122 
SCCF RECON,ioos:station:SCCF:53:1,2011-10-03T05:00:00Z,26.6493,-81.8810,2.254,3.89,1111122 
SCCF RECON,ioos:station:SCCF:53:1,2011-10-03T06:00:00Z,26.6493,-81.8810,2.24,4.13,1111122 
SCCF RECON,ioos:station:SCCF:53:1,2011-10-03T07:00:00Z,26.6493,-81.8810,2.246,4.07,1111122 
SCCF RECON,ioos:station:SCCF:53:1,2011-10-03T08:00:00Z,26.6493,-81.8810,2.28,4.57,1111122 
SCCF RECON,ioos:station:SCCF:53:1,2011-10-03T09:00:00Z,26.6493,-81.8810,2.34,4.79,1111122 
SCCF RECON,ioos:station:SCCF:53:1,2011-10-03T10:00:00Z,26.6493,-81.8810,2.39,5.22,1111122 
SCCF RECON,ioos:station:SCCF:53:1,2011-10-03T11:00:00Z,26.6493,-81.8810,2.437,6.18,1111122 
SCCF RECON,ioos:station:SCCF:53:1,2011-10-03T12:00:00Z,26.6493,-81.8810,2.46,5.29,1111122 
SCCF RECON,ioos:station:SCCF:53:1,2011-10-03T13:00:00Z,26.6493,-81.8810,2.43,4.81,1111122 
SCCF RECON,ioos:station:SCCF:53:1,2011-10-03T14:00:00Z,26.6493,-81.8810,2.38,4.98,1111122 
SCCF RECON,ioos:station:SCCF:53:1,2011-10-03T15:00:00Z,26.6493,-81.8810,2.328,5.08,1111122 
SCCF RECON,ioos:station:SCCF:53:1,2011-10-03T16:00:00Z,26.6493,-81.8810,2.27,5.52,1111122 
SCCF RECON,ioos:station:SCCF:53:1,2011-10-03T17:00:00Z,26.6493,-81.8810,2.21,5.68,1111122 
SCCF RECON,ioos:station:SCCF:53:1,2011-10-03T18:00:00Z,26.6493,-81.8810,2.15,5.62,1111122 
SCCF RECON,ioos:station:SCCF:53:1,2011-10-03T19:00:00Z,26.6493,-81.8810,2.097,5.7,1111122 
SCCF RECON,ioos:station:SCCF:53:1,2011-10-03T20:00:00Z,26.6493,-81.8810,2.056,5.63,1111122 
SCCF RECON,ioos:station:SCCF:53:1,2011-10-03T21:00:00Z,26.6493,-81.8810,2.04,5.47,1111122 
SCCF RECON,ioos:station:SCCF:53:1,2011-10-03T22:00:00Z,26.6493,-81.8810,2.068,5.46,1111122 
SCCF RECON,ioos:station:SCCF:53:1,2011-10-03T23:00:00Z,26.6493,-81.8810,2.111,5.67,1111122 
SCCF RECON,ioos:station:SCCF:53:1,2011-10-04T00:00:00Z,26.6493,-81.8810,2.16,5.55,1111122 
SCCF RECON,ioos:station:SCCF:53:1,2011-10-04T01:00:00Z,26.6493,-81.8810,2.21,5.71,1111122 
SCCF RECON,ioos:station:SCCF:53:1,2011-10-04T02:00:00Z,26.6493,-81.8810,2.25,5.29,1111122 
SCCF RECON,ioos:station:SCCF:53:1,2011-10-04T03:00:00Z,26.6493,-81.8810,2.29,5.62,1111122 
SCCF RECON,ioos:station:SCCF:53:1,2011-10-04T04:00:00Z,26.6493,-81.8810,2.31,6.13,1111122 
SCCF RECON,ioos:station:SCCF:53:1,2011-10-04T05:00:00Z,26.6493,-81.8810,2.33,6.61,1111122 
SCCF RECON,ioos:station:SCCF:53:1,2011-10-04T06:00:00Z,26.6493,-81.8810,2.341,7.27,1111122 
SCCF RECON,ioos:station:SCCF:53:1,2011-10-04T07:00:00Z,26.6493,-81.8810,2.34,7.43,1111122 
SCCF RECON,ioos:station:SCCF:53:1,2011-10-04T08:00:00Z,26.6493,-81.8810,2.32,8.04,1111122 
SCCF RECON,ioos:station:SCCF:53:1,2011-10-04T09:00:00Z,26.6493,-81.8810,2.328,7.63,1111122 
SCCF RECON,ioos:station:SCCF:53:1,2011-10-04T10:00:00Z,26.6493,-81.8810,2.369,8.3,1111122 
SCCF RECON,ioos:station:SCCF:53:1,2011-10-04T11:00:00Z,26.6493,-81.8810,2.41,7.93,1111122 
SCCF RECON,ioos:station:SCCF:53:1,2011-10-04T12:00:00Z,26.6493,-81.8810,2.44,8.41,1111122 
SCCF RECON,ioos:station:SCCF:53:1,2011-10-04T13:00:00Z,26.6493,-81.8810,2.46,7.7,1111122 
SCCF RECON,ioos:station:SCCF:53:1,2011-10-04T14:00:00Z,26.6493,-81.8810,2.454,8.09,1111122 
SCCF RECON,ioos:station:SCCF:53:1,2011-10-04T15:00:00Z,26.6493,-81.8810,2.4,8.32,1111122 
SCCF RECON,ioos:station:SCCF:53:1,2011-10-04T16:00:00Z,26.6493,-81.8810,2.341,8.37,1111122 
SCCF RECON,ioos:station:SCCF:53:1,2011-10-04T17:00:00Z,26.6493,-81.8810,2.28,8.18,1111122 
SCCF RECON,ioos:station:SCCF:53:1,2011-10-04T18:00:00Z,26.6493,-81.8810,2.215,7.01,1111122 
SCCF RECON,ioos:station:SCCF:53:1,2011-10-04T19:00:00Z,26.6493,-81.8810,2.157,7.01,1111122 
SCCF RECON,ioos:station:SCCF:53:1,2011-10-04T20:00:00Z,26.6493,-81.8810,2.1,7.85,1111122 
SCCF RECON,ioos:station:SCCF:53:1,2011-10-04T21:00:00Z,26.6493,-81.8810,2.052,8.16,1111122 
SCCF RECON,ioos:station:SCCF:53:1,2011-10-04T22:00:00Z,26.6493,-81.8810,2.03,7.23,1111122 
SCCF RECON,ioos:station:SCCF:53:1,2011-10-04T23:00:00Z,26.6493,-81.8810,2.04,5.67,1111122 
SCCF RECON,ioos:station:SCCF:53:1,2011-10-05T00:00:00Z,26.6493,-81.8810,2.08,6.21,1111122 
SCCF RECON,ioos:station:SCCF:53:1,2011-10-05T01:00:00Z,26.6493,-81.8810,2.14,6.14,1111122 
SCCF RECON,ioos:station:SCCF:53:1,2011-10-05T02:00:00Z,26.6493,-81.8810,2.19,7.61,1111122 
SCCF RECON,ioos:station:SCCF:53:1,2011-10-05T03:00:00Z,26.6493,-81.8810,2.25,7.21,1111122 
SCCF RECON,ioos:station:SCCF:53:1,2011-10-05T04:00:00Z,26.6493,-81.8810,2.29,8.87,1111122 
SCCF RECON,ioos:station:SCCF:53:1,2011-10-05T05:00:00Z,26.6493,-81.8810,2.317,9.37,1111122 
SCCF RECON,ioos:station:SCCF:53:1,2011-10-05T06:00:00Z,26.6493,-81.8810,2.339,8.94,1111122 
SCCF RECON,ioos:station:SCCF:53:1,2011-10-05T07:00:00Z,26.6493,-81.8810,2.33,9.35,1111122 
SCCF RECON,ioos:station:SCCF:53:1,2011-10-05T08:00:00Z,26.6493,-81.8810,2.31,9.55,1111122 
SCCF RECON,ioos:station:SCCF:53:1,2011-10-05T09:00:00Z,26.6493,-81.8810,2.29,8.98,1111122 
SCCF RECON,ioos:station:SCCF:53:1,2011-10-05T10:00:00Z,26.6493,-81.8810,2.288,8.97,1111122 
SCCF RECON,ioos:station:SCCF:53:1,2011-10-05T11:00:00Z,26.6493,-81.8810,2.32,9.36,1111122 
SCCF RECON,ioos:station:SCCF:53:1,2011-10-05T12:00:00Z,26.6493,-81.8810,2.362,9.15,1111122 
SCCF RECON,ioos:station:SCCF:53:1,2011-10-05T13:00:00Z,26.6493,-81.8810,2.42,9.34,1111122 
SCCF RECON,ioos:station:SCCF:53:1,2011-10-05T14:00:00Z,26.6493,-81.8810,2.458,9.2,1111122 
SCCF RECON,ioos:station:SCCF:53:1,2011-10-05T15:00:00Z,26.6493,-81.8810,2.454,9.0,1111122 
SCCF RECON,ioos:station:SCCF:53:1,2011-10-05T16:00:00Z,26.6493,-81.8810,2.401,9.25,1111122 
SCCF RECON,ioos:station:SCCF:53:1,2011-10-05T17:00:00Z,26.6493,-81.8810,2.34,8.7,1111122 
SCCF RECON,ioos:station:SCCF:53:1,2011-10-05T18:00:00Z,26.6493,-81.8810,2.28,8.81,1111122 
SCCF RECON,ioos:station:SCCF:53:1,2011-10-05T19:00:00Z,26.6493,-81.8810,2.219,9.18,1111122 
SCCF RECON,ioos:station:SCCF:53:1,2011-10-05T20:00:00Z,26.6493,-81.8810,2.163,9.14,1111122 
SCCF RECON,ioos:station:SCCF:53:1,2011-10-05T21:00:00Z,26.6493,-81.8810,2.109,8.62,1111122 
SCCF RECON,ioos:station:SCCF:53:1,2011-10-05T22:00:00Z,26.6493,-81.8810,2.064,8.2,1111122 
SCCF RECON,ioos:station:SCCF:53:1,2011-10-05T23:00:00Z,26.6493,-81.8810,2.044,7.55,1111122 
SCCF RECON,ioos:station:SCCF:53:1,2011-10-06T00:00:00Z,26.6493,-81.8810,2.049,6.5,1111122 
SCCF RECON,ioos:station:SCCF:53:1,2011-10-06T01:00:00Z,26.6493,-81.8810,2.087,7.6,1111122 
SCCF RECON,ioos:station:SCCF:53:1,2011-10-06T02:00:00Z,26.6493,-81.8810,2.127,6.98,1111122 
SCCF RECON,ioos:station:SCCF:53:1,2011-10-06T03:00:00Z,26.6493,-81.8810,2.17,7.82,1111122 
SCCF RECON,ioos:station:SCCF:53:1,2011-10-06T04:00:00Z,26.6493,-81.8810,2.22,8.6,1111122 
SCCF RECON,ioos:station:SCCF:53:1,2011-10-06T05:00:00Z,26.6493,-81.8810,2.25,9.95,1111122 
SCCF RECON,ioos:station:SCCF:53:1,2011-10-06T06:00:00Z,26.6493,-81.8810,2.27,9.56,1111122 
SCCF RECON,ioos:station:SCCF:53:1,2011-10-06T07:00:00Z,26.6493,-81.8810,2.255,10.0,1111122 
SCCF RECON,ioos:station:SCCF:53:1,2011-10-06T08:00:00Z,26.6493,-81.8810,2.22,11.16,1111122 
SCCF RECON,ioos:station:SCCF:53:1,2011-10-06T09:00:00Z,26.6493,-81.8810,2.18,11.0,1111122 
SCCF RECON,ioos:station:SCCF:53:1,2011-10-06T10:00:00Z,26.6493,-81.8810,2.17,10.2,1111122 
SCCF RECON,ioos:station:SCCF:53:1,2011-10-06T11:00:00Z,26.6493,-81.8810,2.18,10.77,1111122 
SCCF RECON,ioos:station:SCCF:53:1,2011-10-06T12:00:00Z,26.6493,-81.8810,2.24,10.82,1111122 
SCCF RECON,ioos:station:SCCF:53:1,2011-10-06T13:00:00Z,26.6493,-81.8810,2.309,10.35,1111122 
SCCF RECON,ioos:station:SCCF:53:1,2011-10-06T14:00:00Z,26.6493,-81.8810,2.36,10.0,1111122 
SCCF RECON,ioos:station:SCCF:53:1,2011-10-06T15:00:00Z,26.6493,-81.8810,2.417,9.54,1111122 
SCCF RECON,ioos:station:SCCF:53:1,2011-10-06T16:00:00Z,26.6493,-81.8810,2.437,9.49,1111122 
SCCF RECON,ioos:station:SCCF:53:1,2011-10-06T17:00:00Z,26.6493,-81.8810,2.421,9.43,1111122 
SCCF RECON,ioos:station:SCCF:53:1,2011-10-06T18:00:00Z,26.6493,-81.8810,2.364,9.63,1111122 
SCCF RECON,ioos:station:SCCF:53:1,2011-10-06T19:00:00Z,26.6493,-81.8810,2.31,9.54,1111122 
SCCF RECON,ioos:station:SCCF:53:1,2011-10-06T20:00:00Z,26.6493,-81.8810,2.253,9.19,1111122 
SCCF RECON,ioos:station:SCCF:53:1,2011-10-06T21:00:00Z,26.6493,-81.8810,2.2,8.1,1111122 
SCCF RECON,ioos:station:SCCF:53:1,2011-10-06T22:00:00Z,26.6493,-81.8810,2.15,7.08,1111122 
SCCF RECON,ioos:station:SCCF:53:1,2011-10-06T23:00:00Z,26.6493,-81.8810,2.111,6.69,1111122 
SCCF RECON,ioos:station:SCCF:53:1,2011-10-07T00:00:00Z,26.6493,-81.8810,2.1,6.64,1111122 
SCCF RECON,ioos:station:SCCF:53:1,2011-10-07T01:00:00Z,26.6493,-81.8810,2.13,7.15,1111122 
SCCF RECON,ioos:station:SCCF:53:1,2011-10-07T02:00:00Z,26.6493,-81.8810,2.165,7.55,1111122 
SCCF RECON,ioos:station:SCCF:53:1,2011-10-07T03:00:00Z,26.6493,-81.8810,2.206,8.15,1111122 
SCCF RECON,ioos:station:SCCF:53:1,2011-10-07T04:00:00Z,26.6493,-81.8810,2.254,8.63,1111122 
SCCF RECON,ioos:station:SCCF:53:1,2011-10-07T05:00:00Z,26.6493,-81.8810,2.292,8.49,1111122 
SCCF RECON,ioos:station:SCCF:53:1,2011-10-07T06:00:00Z,26.6493,-81.8810,2.312,9.98,1111122 
SCCF RECON,ioos:station:SCCF:53:1,2011-10-07T07:00:00Z,26.6493,-81.8810,2.31,10.58,1111122 
SCCF RECON,ioos:station:SCCF:53:1,2011-10-07T08:00:00Z,26.6493,-81.8810,2.26,9.36,1111122 
SCCF RECON,ioos:station:SCCF:53:1,2011-10-07T09:00:00Z,26.6493,-81.8810,2.2,7.93,1111122 
SCCF RECON,ioos:station:SCCF:53:1,2011-10-07T10:00:00Z,26.6493,-81.8810,2.166,8.89,1111122 
SCCF RECON,ioos:station:SCCF:53:1,2011-10-07T11:00:00Z,26.6493,-81.8810,2.158,7.67,1111122 
SCCF RECON,ioos:station:SCCF:53:1,2011-10-07T12:00:00Z,26.6493,-81.8810,2.17,7.85,1111122 
SCCF RECON,ioos:station:SCCF:53:1,2011-10-07T13:00:00Z,26.6493,-81.8810,2.22,8.23,1111122 
SCCF RECON,ioos:station:SCCF:53:1,2011-10-07T14:00:00Z,26.6493,-81.8810,2.281,8.39,1111122 
SCCF RECON,ioos:station:SCCF:53:1,2011-10-07T15:00:00Z,26.6493,-81.8810,2.335,9.15,1111122 
SCCF RECON,ioos:station:SCCF:53:1,2011-10-07T16:00:00Z,26.6493,-81.8810,2.375,9.65,1111122 
SCCF RECON,ioos:station:SCCF:53:1,2011-10-07T17:00:00Z,26.6493,-81.8810,2.398,10.25,1111122 
SCCF RECON,ioos:station:SCCF:53:1,2011-10-07T18:00:00Z,26.6493,-81.8810,2.382,9.65,1111122 
SCCF RECON,ioos:station:SCCF:53:1,2011-10-07T19:00:00Z,26.6493,-81.8810,2.332,10.05,1111122 
SCCF RECON,ioos:station:SCCF:53:1,2011-10-07T20:00:00Z,26.6493,-81.8810,2.272,9.46,1111122 
SCCF RECON,ioos:station:SCCF:53:1,2011-10-07T21:00:00Z,26.6493,-81.8810,2.22,8.45,1111122 
SCCF RECON,ioos:station:SCCF:53:1,2011-10-07T22:00:00Z,26.6493,-81.8810,2.17,7.87,1111122 
SCCF RECON,ioos:station:SCCF:53:1,2011-10-07T23:00:00Z,26.6493,-81.8810,2.134,7.2,1111122 
SCCF RECON,ioos:station:SCCF:53:1,2011-10-08T00:00:00Z,26.6493,-81.8810,2.113,7.18,1111122 
SCCF RECON,ioos:station:SCCF:53:1,2011-10-08T01:00:00Z,26.6493,-81.8810,2.124,7.47,1111122 
SCCF RECON,ioos:station:SCCF:53:1,2011-10-08T02:00:00Z,26.6493,-81.8810,2.13,8.09,1111122 
SCCF RECON,ioos:station:SCCF:53:1,2011-10-08T03:00:00Z,26.6493,-81.8810,2.178,8.91,1111122 
SCCF RECON,ioos:station:SCCF:53:1,2011-10-08T04:00:00Z,26.6493,-81.8810,2.23,9.28,1111122 
SCCF RECON,ioos:station:SCCF:53:1,2011-10-08T05:00:00Z,26.6493,-81.8810,2.25,10.43,1111122 
SCCF RECON,ioos:station:SCCF:53:1,2011-10-08T06:00:00Z,26.6493,-81.8810,2.275,10.51,1111122 
SCCF RECON,ioos:station:SCCF:53:1,2011-10-08T07:00:00Z,26.6493,-81.8810,2.284,10.49,1111122 
SCCF RECON,ioos:station:SCCF:53:1,2011-10-08T08:00:00Z,26.6493,-81.8810,2.248,10.76,1111122 
SCCF RECON,ioos:station:SCCF:53:1,2011-10-08T09:00:00Z,26.6493,-81.8810,2.181,9.64,1111122 
SCCF RECON,ioos:station:SCCF:53:1,2011-10-08T10:00:00Z,26.6493,-81.8810,2.14,8.42,1111122 
SCCF RECON,ioos:station:SCCF:53:1,2011-10-08T11:00:00Z,26.6493,-81.8810,2.103,7.98,1111122 
SCCF RECON,ioos:station:SCCF:53:1,2011-10-08T12:00:00Z,26.6493,-81.8810,2.082,7.7,1111122 
SCCF RECON,ioos:station:SCCF:53:1,2011-10-08T13:00:00Z,26.6493,-81.8810,2.13,8.52,1111122 
SCCF RECON,ioos:station:SCCF:53:1,2011-10-08T14:00:00Z,26.6493,-81.8810,2.182,9.86,1111122 
SCCF RECON,ioos:station:SCCF:53:1,2011-10-08T15:00:00Z,26.6493,-81.8810,2.221,10.25,1111122 
SCCF RECON,ioos:station:SCCF:53:1,2011-10-08T16:00:00Z,26.6493,-81.8810,2.27,10.49,1111122 
SCCF RECON,ioos:station:SCCF:53:1,2011-10-08T17:00:00Z,26.6493,-81.8810,2.301,10.66,1111122 
SCCF RECON,ioos:station:SCCF:53:1,2011-10-08T18:00:00Z,26.6493,-81.8810,2.346,10.85,1111122 
SCCF RECON,ioos:station:SCCF:53:1,2011-10-08T19:00:00Z,26.6493,-81.8810,2.34,10.69,1111122 
SCCF RECON,ioos:station:SCCF:53:1,2011-10-08T20:00:00Z,26.6493,-81.8810,2.306,10.4,1111122 
SCCF RECON,ioos:station:SCCF:53:1,2011-10-08T21:00:00Z,26.6493,-81.8810,2.247,9.61,1111122 
SCCF RECON,ioos:station:SCCF:53:1,2011-10-08T22:00:00Z,26.6493,-81.8810,2.201,8.95,1111122 
SCCF RECON,ioos:station:SCCF:53:1,2011-10-08T23:00:00Z,26.6493,-81.8810,2.159,8.12,1111122 
SCCF RECON,ioos:station:SCCF:53:1,2011-10-09T00:00:00Z,26.6493,-81.8810,2.13,7.72,1111122 
SCCF RECON,ioos:station:SCCF:53:1,2011-10-09T01:00:00Z,26.6493,-81.8810,2.128,7.75,1111122 
SCCF RECON,ioos:station:SCCF:53:1,2011-10-09T02:00:00Z,26.6493,-81.8810,2.141,7.62,1111122 
SCCF RECON,ioos:station:SCCF:53:1,2011-10-09T03:00:00Z,26.6493,-81.8810,2.188,8.19,1111122 
SCCF RECON,ioos:station:SCCF:53:1,2011-10-09T04:00:00Z,26.6493,-81.8810,2.23,8.14,1111122 
SCCF RECON,ioos:station:SCCF:53:1,2011-10-09T05:00:00Z,26.6493,-81.8810,2.262,8.62,1111122 
SCCF RECON,ioos:station:SCCF:53:1,2011-10-09T06:00:00Z,26.6493,-81.8810,2.3,8.73,1111122 
SCCF RECON,ioos:station:SCCF:53:1,2011-10-09T07:00:00Z,26.6493,-81.8810,2.305,8.75,1111122 
SCCF RECON,ioos:station:SCCF:53:1,2011-10-09T08:00:00Z,26.6493,-81.8810,2.3,8.54,1111122 
SCCF RECON,ioos:station:SCCF:53:1,2011-10-09T09:00:00Z,26.6493,-81.8810,2.27,9.33,1111122 
SCCF RECON,ioos:station:SCCF:53:1,2011-10-09T10:00:00Z,26.6493,-81.8810,2.221,9.37,1111122 
SCCF RECON,ioos:station:SCCF:53:1,2011-10-09T11:00:00Z,26.6493,-81.8810,2.17,9.69,1111122 
SCCF RECON,ioos:station:SCCF:53:1,2011-10-09T12:00:00Z,26.6493,-81.8810,2.139,9.74,1111122 
SCCF RECON,ioos:station:SCCF:53:1,2011-10-09T13:00:00Z,26.6493,-81.8810,2.101,9.48,1111122 
SCCF RECON,ioos:station:SCCF:53:1,2011-10-09T14:00:00Z,26.6493,-81.8810,2.131,9.64,1111122 
SCCF RECON,ioos:station:SCCF:53:1,2011-10-09T15:00:00Z,26.6493,-81.8810,2.21,9.05,1111122 
SCCF RECON,ioos:station:SCCF:53:1,2011-10-09T16:00:00Z,26.6493,-81.8810,2.265,8.35,1111122 
SCCF RECON,ioos:station:SCCF:53:1,2011-10-09T17:00:00Z,26.6493,-81.8810,2.331,8.44,1111122 
SCCF RECON,ioos:station:SCCF:53:1,2011-10-09T18:00:00Z,26.6493,-81.8810,2.39,8.94,1111122 
SCCF RECON,ioos:station:SCCF:53:1,2011-10-09T19:00:00Z,26.6493,-81.8810,2.409,9.31,1111122 
SCCF RECON,ioos:station:SCCF:53:1,2011-10-09T20:00:00Z,26.6493,-81.8810,2.391,9.34,1111122 
SCCF RECON,ioos:station:SCCF:53:1,2011-10-09T21:00:00Z,26.6493,-81.8810,2.349,9.19,1111122 
SCCF RECON,ioos:station:SCCF:53:1,2011-10-09T22:00:00Z,26.6493,-81.8810,2.303,8.46,1111122 
SCCF RECON,ioos:station:SCCF:53:1,2011-10-09T23:00:00Z,26.6493,-81.8810,2.26,7.57,1111122 
SCCF RECON,ioos:station:SCCF:53:1,2011-10-10T00:00:00Z,26.6493,-81.8810,2.211,6.8,1111122 
SCCF RECON,ioos:station:SCCF:53:1,2011-10-10T01:00:00Z,26.6493,-81.8810,2.184,7.19,1111122 
SCCF RECON,ioos:station:SCCF:53:1,2011-10-10T02:00:00Z,26.6493,-81.8810,2.19,6.84,1111122 
SCCF RECON,ioos:station:SCCF:53:1,2011-10-10T03:00:00Z,26.6493,-81.8810,2.25,7.36,1111122 
SCCF RECON,ioos:station:SCCF:53:1,2011-10-10T04:00:00Z,26.6493,-81.8810,2.31,7.1,1111122 
SCCF RECON,ioos:station:SCCF:53:1,2011-10-10T05:00:00Z,26.6493,-81.8810,2.372,7.75,1111122 
SCCF RECON,ioos:station:SCCF:53:1,2011-10-10T06:00:00Z,26.6493,-81.8810,2.439,7.98,1111122 
SCCF RECON,ioos:station:SCCF:53:1,2011-10-10T07:00:00Z,26.6493,-81.8810,2.472,8.46,1111122 
SCCF RECON,ioos:station:SCCF:53:1,2011-10-10T08:00:00Z,26.6493,-81.8810,2.48,8.76,1111122 
SCCF RECON,ioos:station:SCCF:53:1,2011-10-10T09:00:00Z,26.6493,-81.8810,2.43,8.58,1111122 
SCCF RECON,ioos:station:SCCF:53:1,2011-10-10T10:00:00Z,26.6493,-81.8810,2.38,7.59,1111122 
SCCF RECON,ioos:station:SCCF:53:1,2011-10-10T11:00:00Z,26.6493,-81.8810,2.33,7.62,1111122 
SCCF RECON,ioos:station:SCCF:53:1,2011-10-10T12:00:00Z,26.6493,-81.8810,2.28,8.28,1111122 
SCCF RECON,ioos:station:SCCF:53:1,2011-10-10T13:00:00Z,26.6493,-81.8810,2.233,8.51,1111122 
SCCF RECON,ioos:station:SCCF:53:1,2011-10-10T14:00:00Z,26.6493,-81.8810,2.221,8.6,1111122 
SCCF RECON,ioos:station:SCCF:53:1,2011-10-10T15:00:00Z,26.6493,-81.8810,2.291,9.06,1111122 
SCCF RECON,ioos:station:SCCF:53:1,2011-10-10T16:00:00Z,26.6493,-81.8810,2.356,8.98,1111122 
SCCF RECON,ioos:station:SCCF:53:1,2011-10-10T17:00:00Z,26.6493,-81.8810,2.41,8.18,1111122 
SCCF RECON,ioos:station:SCCF:53:1,2011-10-10T18:00:00Z,26.6493,-81.8810,2.48,9.09,1111122 
SCCF RECON,ioos:station:SCCF:53:1,2011-10-10T19:00:00Z,26.6493,-81.8810,2.523,8.83,1111122 
SCCF RECON,ioos:station:SCCF:53:1,2011-10-10T20:00:00Z,26.6493,-81.8810,2.55,8.58,1111122 
SCCF RECON,ioos:station:SCCF:53:1,2011-10-10T21:00:00Z,26.6493,-81.8810,2.55,8.43,1111122 
SCCF RECON,ioos:station:SCCF:53:1,2011-10-10T22:00:00Z,26.6493,-81.8810,2.502,7.56,1111122 
SCCF RECON,ioos:station:SCCF:53:1,2011-10-10T23:00:00Z,26.6493,-81.8810,2.44,7.44,1111122 
SCCF RECON,ioos:station:SCCF:53:1,2011-10-11T00:00:00Z,26.6493,-81.8810,2.39,7.08,1111122 
SCCF RECON,ioos:station:SCCF:53:1,2011-10-11T01:00:00Z,26.6493,-81.8810,2.34,7.0,1111122 
SCCF RECON,ioos:station:SCCF:53:1,2011-10-11T02:00:00Z,26.6493,-81.8810,2.32,7.4,1111122 
SCCF RECON,ioos:station:SCCF:53:1,2011-10-11T03:00:00Z,26.6493,-81.8810,2.37,7.9,1111122 
SCCF RECON,ioos:station:SCCF:53:1,2011-10-11T04:00:00Z,26.6493,-81.8810,2.44,8.27,1111122 
SCCF RECON,ioos:station:SCCF:53:1,2011-10-11T05:00:00Z,26.6493,-81.8810,2.49,8.27,1111122 
SCCF RECON,ioos:station:SCCF:53:1,2011-10-11T06:00:00Z,26.6493,-81.8810,2.55,8.27,1111122 
SCCF RECON,ioos:station:SCCF:53:1,2011-10-11T07:00:00Z,26.6493,-81.8810,2.582,8.56,1111122 
SCCF RECON,ioos:station:SCCF:53:1,2011-10-11T08:00:00Z,26.6493,-81.8810,2.583,8.36,1111122 
SCCF RECON,ioos:station:SCCF:53:1,2011-10-11T09:00:00Z,26.6493,-81.8810,2.538,8.17,1111122 
SCCF RECON,ioos:station:SCCF:53:1,2011-10-11T10:00:00Z,26.6493,-81.8810,2.48,7.84,1111122 
SCCF RECON,ioos:station:SCCF:53:1,2011-10-11T11:00:00Z,26.6493,-81.8810,2.429,7.63,1111122 
SCCF RECON,ioos:station:SCCF:53:1,2011-10-11T12:00:00Z,26.6493,-81.8810,2.37,7.9,1111122 
SCCF RECON,ioos:station:SCCF:53:1,2011-10-11T13:00:00Z,26.6493,-81.8810,2.32,7.84,1111122 
SCCF RECON,ioos:station:SCCF:53:1,2011-10-11T14:00:00Z,26.6493,-81.8810,2.28,7.98,1111122 
SCCF RECON,ioos:station:SCCF:53:1,2011-10-11T15:00:00Z,26.6493,-81.8810,2.29,7.86,1111122 
SCCF RECON,ioos:station:SCCF:53:1,2011-10-11T16:00:00Z,26.6493,-81.8810,2.363,7.61,1111122 
SCCF RECON,ioos:station:SCCF:53:1,2011-10-11T17:00:00Z,26.6493,-81.8810,2.425,7.07,1111122 
SCCF RECON,ioos:station:SCCF:53:1,2011-10-11T18:00:00Z,26.6493,-81.8810,2.48,8.01,1111122 
SCCF RECON,ioos:station:SCCF:53:1,2011-10-11T19:00:00Z,26.6493,-81.8810,2.54,7.93,1111122 
SCCF RECON,ioos:station:SCCF:53:1,2011-10-11T20:00:00Z,26.6493,-81.8810,2.578,7.81,1111122 